Location: Diebersbach
(48.5163°N, 8.0558°E)
Time: 21:00:05
(UTC+00:00)

USA 229 - Pass Details

Date: 01 November 2021
Orbit: 946 x 1266 km, 63.4° (Epoch: 25 November)

Event Time Altitude Azimuth Distance (km) Brightness Sun altitude
Rises 16:58:33 0° 226° (SW) 3,644 7.6 -8.8°
Reaches altitude 10° 17:01:03 10° 228° (SW) 2,726 6.9 -9.2°
Maximum altitude 17:07:26 74° 314° (NW) 1,065 3.8 -10.3°
Drops below altitude 10° 17:14:21 10° 40° (NE) 2,939 5.6 -11.4°
Enters shadow 17:15:37 - 41° (NE) 3,395 5.9 -11.6°
